Location: Spruce Knob
(38.6995°N, 79.5330°W)
Time: 19:28:11
(UTC-04:00)

A-11 Canister half - Pass Details

Date: 29 January 2022
Orbit: 1513 x 1686 km, 47.2° (Epoch: 26 May)

Event Time Altitude Azimuth Distance (km) Brightness Sun altitude
Rises 14:30:39 0° 212° (SSW) 4,840 12.9 27.0°
Reaches altitude 10° 14:33:56 10° 207° (SSW) 3,832 12.9 26.6°
Maximum altitude 14:43:08 49° 136° (SE) 1,947 10.0 25.6°
Drops below altitude 10° 14:52:02 10° 66° (ENE) 3,719 10.6 24.6°
Sets 14:55:09 0° 61° (ENE) 4,687 11.0 24.3°
